,,,PA_Meas_PMT16A,,PR_Meas_QMR101_102,,RH_Meas_QMH101,,SR_Meas_QMS101,,TA_Meas_QMH101,,GenWind,,GenWind,
date,time,status,PA,status,PR,status,RH,status,SR,status,TA,status,DirAvg,status,SpdAvg,
2011-11-01, 00:00:04,VALID,1001.9,VALID,0,VALID,93.4309,VALID,0,VALID,24.8522,VALID,341,VALID,0.491406,
2011-11-01, 00:01:04,VALID,1001.87,VALID,0,VALID,93.4309,VALID,0,VALID,24.8522,VALID,341,VALID,0.502344,
2011-11-01, 00:02:04,VALID,1001.85,VALID,0,VALID,93.4309,VALID,0,VALID,24.8327,VALID,341,VALID,0.507422,
2011-11-01, 00:03:04,VALID,1001.81,VALID,0,VALID,93.4843,VALID,0,VALID,24.8327,VALID,341,VALID,0.519141,
2011-11-01, 00:04:04,VALID,1001.83,VALID,0,VALID,93.5072,VALID,0,VALID,24.8132,VALID,341,VALID,0.423047,
2011-11-01, 00:05:04,VALID,1001.78,VALID,0,VALID,93.5453,VALID,0,VALID,24.7743,VALID,341,VALID,0.516406,
2011-11-01, 00:06:04,VALID,1001.79,VALID,0,VALID,93.6064,VALID,0,VALID,24.7743,VALID,341,VALID,0.554297,
2011-11-01, 00:07:04,VALID,1001.76,VALID,0,VALID,93.614,VALID,0,VALID,24.7548,VALID,341,VALID,0.407031,
2011-11-01, 00:08:04,VALID,1001.77,VALID,0,VALID,93.6674,VALID,0,VALID,24.7353,VALID,341,VALID,0.5125,
2011-11-01, 00:09:04,VALID,1001.8,VALID,0,VALID,93.7895,VALID,0,VALID,24.7353,VALID,350,VALID,0.514844,
2011-11-01, 00:10:04,VALID,1001.8,VALID,0,VALID,93.82,VALID,0,VALID,24.7548,VALID,4,VALID,0.723437,
2011-11-01, 00:11:04,VALID,1001.8,VALID,0,VALID,93.553,VALID,0,VALID,24.7743,VALID,5,VALID,1.30508,
2011-11-01, 00:12:04,VALID,1001.85,VALID,0,VALID,93.347,VALID,0,VALID,24.7743,VALID,354,VALID,0.785937,
2011-11-01, 00:13:04,VALID,1001.87,VALID,0,VALID,93.202,VALID,0,VALID,24.7743,VALID,330,VALID,0.857031,
2011-11-01, 00:14:04,VALID,1001.89,VALID,0,VALID,92.9655,VALID,0,VALID,24.7937,VALID,348,VALID,1.04375,
2011-11-01, 00:15:04,VALID,1001.91,VALID,0,VALID,92.8053,VALID,0,VALID,24.8132,VALID,353,VALID,1.31953,
2011-11-01, 00:16:04,VALID,1001.88,VALID,0,VALID,92.6756,VALID,0,VALID,24.8132,VALID,348,VALID,1.46445,
2011-11-01, 00:17:04,VALID,1001.89,VALID,0,VALID,92.546,VALID,0,VALID,24.8327,VALID,347,VALID,1.39063,
2011-11-01, 00:18:04,VALID,1001.84,VALID,0,VALID,92.5536,VALID,0,VALID,24.8522,VALID,343,VALID,0.984766,
2011-11-01, 00:19:04,VALID,1001.82,VALID,0,VALID,92.6299,VALID,0,VALID,24.8697,VALID,332,VALID,0.647266,
2011-11-01, 00:20:04,VALID,1001.8,VALID,0,VALID,92.5536,VALID,0,VALID,24.8697,VALID,359,VALID,1.24297,
2011-11-01, 00:21:04,VALID,1001.78,VALID,0,VALID,92.5002,VALID,0,VALID,24.8892,VALID,358,VALID,0.913281,
2011-11-01, 00:22:04,VALID,1001.77,VALID,0,VALID,92.4697,VALID,0,VALID,24.9282,VALID,357,VALID,1.3707,
2011-11-01, 00:23:04,VALID,1001.75,VALID,0,VALID,92.4697,VALID,0,VALID,24.9282,VALID,14,VALID,0.661328,
2011-11-01, 00:24:04,VALID,1001.74,VALID,0,VALID,92.3705,VALID,0.0815089,VALID,24.9282,VALID,348,VALID,0.927344,
2011-11-01, 00:25:04,VALID,1001.72,VALID,0,VALID,92.3476,VALID,0,VALID,24.9263,VALID,349,VALID,1.30938,
2011-11-01, 00:26:04,VALID,1001.69,VALID,0,VALID,92.195,VALID,0,VALID,24.9671,VALID,352,VALID,1.99766,
2011-11-01, 00:27:04,VALID,1001.66,VALID,0,VALID,92.2637,VALID,0,VALID,24.9671,VALID,360,VALID,1.13125,
2011-11-01, 00:28:04,VALID,1001.63,VALID,0,VALID,92.2484,VALID,0,VALID,24.9476,VALID,342,VALID,1.04023,
2011-11-01, 00:29:04,VALID,1001.63,VALID,0,VALID,92.2866,VALID,0,VALID,24.9671,VALID,341,VALID,0.951953,
2011-11-01, 00:30:04,VALID,1001.6,VALID,0,VALID,92.2332,VALID,0,VALID,24.9457,VALID,348,VALID,1.0125,
2011-11-01, 00:31:04,VALID,1001.59,VALID,0,VALID,92.2179,VALID,0,VALID,24.9866,VALID,344,VALID,1.26484,
2011-11-01, 00:32:04,VALID,1001.57,VALID,0,VALID,92.1492,VALID,0,VALID,24.9866,VALID,358,VALID,1.43359,
2011-11-01, 00:33:04,VALID,1001.57,VALID,0,VALID,92.0653,VALID,0,VALID,25.006,VALID,331,VALID,1.36328,
2011-11-01, 00:34:04,VALID,1001.54,VALID,0,VALID,92.0653,VALID,0,VALID,25.0255,VALID,317,VALID,1.0793,
2011-11-01, 00:35:04,VALID,1001.57,VALID,0,VALID,91.9967,VALID,0,VALID,25.0255,VALID,351,VALID,0.824219,
2011-11-01, 00:36:04,VALID,1001.53,VALID,0,VALID,91.9204,VALID,0,VALID,25.0255,VALID,346,VALID,2.18125,
2011-11-01, 00:37:04,VALID,1001.51,VALID,0,VALID,91.8822,VALID,0,VALID,25.0236,VALID,350,VALID,1.92656,
2011-11-01, 00:38:04,VALID,1001.52,VALID,0,VALID,91.8136,VALID,0,VALID,25.0663,VALID,349,VALID,1.85,
2011-11-01, 00:39:04,VALID,1001.47,VALID,0,VALID,91.7983,VALID,0,VALID,25.0644,VALID,341,VALID,1.45195,
2011-11-01, 00:40:04,VALID,1001.44,VALID,0,VALID,91.7907,VALID,0,VALID,25.045,VALID,347,VALID,1.90703,
2011-11-01, 00:41:04,VALID,1001.45,VALID,0,VALID,91.8059,VALID,0,VALID,25.0255,VALID,344,VALID,1.63633,
2011-11-01, 00:42:04,VALID,1001.43,VALID,0,VALID,91.9433,VALID,0,VALID,25.0663,VALID,353,VALID,1.06602,
2011-11-01, 00:43:04,VALID,1001.41,VALID,0,VALID,91.8594,VALID,0,VALID,25.0274,VALID,340,VALID,1.7418,
2011-11-01, 00:44:04,VALID,1001.47,VALID,0,VALID,91.9509,VALID,0,VALID,25.0079,VALID,349,VALID,1.45156,
2011-11-01, 00:45:04,VALID,1001.46,VALID,0,VALID,91.8899,VALID,0,VALID,24.9885,VALID,343,VALID,1.58555,
2011-11-01, 00:46:04,VALID,1001.45,VALID,0,VALID,91.7754,VALID,0,VALID,24.9671,VALID,347,VALID,2.27109,
2011-11-01, 00:47:04,VALID,1001.48,VALID,0,VALID,91.7983,VALID,0,VALID,24.9652,VALID,356,VALID,1.96055,
2011-11-01, 00:48:04,VALID,1001.46,VALID,0,VALID,91.3253,VALID,0,VALID,24.9476,VALID,353,VALID,2.67891,
2011-11-01, 00:49:04,VALID,1001.5,VALID,0,VALID,91.4626,VALID,0,VALID,24.9885,VALID,359,VALID,1.78984,
2011-11-01, 00:50:04,VALID,1001.45,VALID,0,VALID,90.7074,VALID,0,VALID,24.969,VALID,345,VALID,3.05586,
2011-11-01, 00:51:04,VALID,1001.5,VALID,0,VALID,90.5319,VALID,0,VALID,24.9495,VALID,345,VALID,1.78008,
2011-11-01, 00:52:04,VALID,1001.49,VALID,0,VALID,90.2649,VALID,0,VALID,24.9282,VALID,351,VALID,2.13789,
2011-11-01, 00:53:04,VALID,1001.47,VALID,0,VALID,90.0055,VALID,0,VALID,24.9087,VALID,351,VALID,2.22969,
2011-11-01, 00:54:04,VALID,1001.47,VALID,0,VALID,90.0589,VALID,0,VALID,24.8911,VALID,347,VALID,2,
2011-11-01, 00:55:04,VALID,1001.49,VALID,0,VALID,90.12,VALID,0,VALID,24.8503,VALID,341,VALID,1.97187,
2011-11-01, 00:56:04,VALID,1001.5,VALID,0,VALID,89.9979,VALID,0.0815089,VALID,24.8113,VALID,343,VALID,2.22539,
2011-11-01, 00:57:04,VALID,1001.48,VALID,0,VALID,89.8224,VALID,0.0815089,VALID,24.7919,VALID,352,VALID,2.475,
2011-11-01, 00:58:04,VALID,1001.47,VALID,0,VALID,89.9445,VALID,0,VALID,24.7529,VALID,353,VALID,1.6125,
2011-11-01, 00:59:04,VALID,1001.42,VALID,0,VALID,90.036,VALID,0,VALID,24.7335,VALID,354,VALID,1.68828,
2011-11-01, 01:00:04,VALID,1001.38,VALID,0,VALID,90.0818,VALID,0,VALID,24.714,VALID,355,VALID,2.28555,
2011-11-01, 01:01:04,VALID,1001.38,VALID,0,VALID,90.0513,VALID,0,VALID,24.6945,VALID,1,VALID,1.79297,
2011-11-01, 01:02:04,VALID,1001.33,VALID,0,VALID,90.1352,VALID,0,VALID,24.6556,VALID,351,VALID,1.22617,
2011-11-01, 01:03:04,VALID,1001.31,VALID,0,VALID,90.1657,VALID,0,VALID,24.6769,VALID,341,VALID,1.1293,
2011-11-01, 01:04:04,VALID,1001.3,VALID,0,VALID,90.1963,VALID,0,VALID,24.6574,VALID,342,VALID,1.78477,
2011-11-01, 01:05:04,VALID,1001.26,VALID,0,VALID,90.242,VALID,0,VALID,24.6166,VALID,348,VALID,2.08555,
2011-11-01, 01:06:04,VALID,1001.29,VALID,0,VALID,90.3107,VALID,0,VALID,24.5972,VALID,340,VALID,1.6793,
2011-11-01, 01:07:04,VALID,1001.28,VALID,0,VALID,90.5014,VALID,0,VALID,24.5758,VALID,360,VALID,1.0832,
2011-11-01, 01:08:04,VALID,1001.26,VALID,0,VALID,90.4404,VALID,0,VALID,24.5564,VALID,347,VALID,1.51172,
2011-11-01, 01:09:04,VALID,1001.24,VALID,0,VALID,90.181,VALID,0,VALID,24.5777,VALID,330,VALID,1.74375,
2011-11-01, 01:10:04,VALID,1001.26,VALID,0,VALID,90.1505,VALID,0,VALID,24.5796,VALID,351,VALID,1.45313,
2011-11-01, 01:11:04,VALID,1001.27,VALID,0,VALID,90.2573,VALID,0,VALID,24.5777,VALID,345,VALID,1.99453,
2011-11-01, 01:12:04,VALID,1001.28,VALID,0,VALID,90.1123,VALID,0,VALID,24.5388,VALID,348,VALID,2.52813,
2011-11-01, 01:13:04,VALID,1001.31,VALID,0,VALID,89.9979,VALID,0,VALID,24.5388,VALID,351,VALID,2.11367,
2011-11-01, 01:14:04,VALID,1001.33,VALID,0,VALID,89.9064,VALID,0,VALID,24.5193,VALID,356,VALID,2.13086,
2011-11-01, 01:15:04,VALID,1001.35,VALID,0,VALID,90.036,VALID,0,VALID,24.5388,VALID,354,VALID,1.47539,
2011-11-01, 01:16:04,VALID,1001.33,VALID,0,VALID,89.8911,VALID,0,VALID,24.5193,VALID,358,VALID,1.70117,
2011-11-01, 01:17:04,VALID,1001.29,VALID,0,VALID,90.0208,VALID,0,VALID,24.5193,VALID,1,VALID,2.3375,
2011-11-01, 01:18:04,VALID,1001.26,VALID,0,VALID,89.8987,VALID,0,VALID,24.4998,VALID,348,VALID,2.55781,
2011-11-01, 01:19:04,VALID,1001.22,VALID,0,VALID,89.9674,VALID,0,VALID,24.4804,VALID,351,VALID,2.65508,
2011-11-01, 01:20:04,VALID,1001.18,VALID,0,VALID,90.0284,VALID,0,VALID,24.4804,VALID,343,VALID,2.13555,
2011-11-01, 01:21:04,VALID,1001.11,VALID,0,VALID,90.1734,VALID,0,VALID,24.4609,VALID,346,VALID,1.33828,
2011-11-01, 01:22:04,VALID,1001.13,VALID,0,VALID,90.3412,VALID,0,VALID,24.4414,VALID,358,VALID,0.822266,
2011-11-01, 01:23:04,VALID,1001.07,VALID,0,VALID,90.5548,VALID,0,VALID,24.4628,VALID,352,VALID,1.41406,
2011-11-01, 01:24:04,VALID,1001.06,VALID,0,VALID,90.5243,VALID,0,VALID,24.4025,VALID,348,VALID,1.07969,
2011-11-01, 01:25:04,VALID,1001.05,VALID,0,VALID,90.6158,VALID,0,VALID,24.383,VALID,343,VALID,1.26445,
2011-11-01, 01:26:04,VALID,1001.03,VALID,0,VALID,90.7226,VALID,0,VALID,24.383,VALID,341,VALID,1.28008,
2011-11-01, 01:27:04,VALID,1001.04,VALID,0,VALID,90.5167,VALID,0,VALID,24.3654,VALID,349,VALID,2.09922,
2011-11-01, 01:28:04,VALID,1001.04,VALID,0,VALID,90.715,VALID,0,VALID,24.3246,VALID,349,VALID,1.62383,
2011-11-01, 01:29:04,VALID,1001.03,VALID,0,VALID,90.4862,VALID,0,VALID,24.3265,VALID,343,VALID,2.68359,
2011-11-01, 01:30:04,VALID,1001.01,VALID,0,VALID,90.4785,VALID,0,VALID,24.2857,VALID,347,VALID,2.58789,
2011-11-01, 01:31:04,VALID,1001,VALID,0,VALID,90.6158,VALID,0,VALID,24.2449,VALID,356,VALID,1.93047,
2011-11-01, 01:32:04,VALID,1001.01,VALID,0,VALID,90.8066,VALID,0,VALID,24.2857,VALID,352,VALID,1.95977,
2011-11-01, 01:33:04,VALID,1000.95,VALID,0,VALID,90.7532,VALID,0,VALID,24.2468,VALID,353,VALID,2.17344,
2011-11-01, 01:34:04,VALID,1000.95,VALID,0,VALID,90.7379,VALID,0,VALID,24.2468,VALID,347,VALID,1.39727,
2011-11-01, 01:35:04,VALID,1000.93,VALID,0,VALID,90.8066,VALID,0,VALID,24.2273,VALID,353,VALID,1.79688,
2011-11-01, 01:36:04,VALID,1000.92,VALID,0,VALID,90.8752,VALID,0,VALID,24.2486,VALID,356,VALID,2.33867,
2011-11-01, 01:37:04,VALID,1000.95,VALID,0,VALID,90.8829,VALID,0,VALID,24.1884,VALID,350,VALID,2.16992,
2011-11-01, 01:38:04,VALID,1000.91,VALID,0,VALID,90.6769,VALID,0,VALID,24.1865,VALID,2,VALID,2.88281,
2011-11-01, 01:39:04,VALID,1000.96,VALID,0,VALID,90.1276,VALID,0,VALID,24.2078,VALID,15,VALID,2.81719,
2011-11-01, 01:40:04,VALID,1000.96,VALID,0,VALID,89.9445,VALID,0,VALID,24.2468,VALID,1,VALID,2.38867,
2011-11-01, 01:41:04,VALID,1000.97,VALID,0,VALID,89.8377,VALID,0,VALID,24.307,VALID,16,VALID,1.51641,
2011-11-01, 01:42:04,VALID,1000.96,VALID,0,VALID,89.1206,VALID,0,VALID,24.3441,VALID,15,VALID,2.62148,
2011-11-01, 01:43:04,VALID,1000.96,VALID,0,VALID,88.9833,VALID,0,VALID,24.383,VALID,359,VALID,1.82109,
2011-11-01, 01:44:04,VALID,1000.91,VALID,0,VALID,89.1664,VALID,0,VALID,24.4414,VALID,354,VALID,1.69531,
2011-11-01, 01:45:04,VALID,1000.9,VALID,0,VALID,89.2732,VALID,0,VALID,24.4433,VALID,353,VALID,1.49883,
2011-11-01, 01:46:04,VALID,1000.92,VALID,0,VALID,89.1435,VALID,0.0815089,VALID,24.4414,VALID,3,VALID,1.46133,
2011-11-01, 01:47:04,VALID,1000.91,VALID,0,VALID,89.0672,VALID,0,VALID,24.422,VALID,38,VALID,1.61953,
2011-11-01, 01:48:04,VALID,1001.08,VALID,0,VALID,89.0367,VALID,0,VALID,24.4414,VALID,67,VALID,1.22187,
2011-11-01, 01:49:04,VALID,1001.12,VALID,0,VALID,89.3952,VALID,0,VALID,24.4414,VALID,54,VALID,1.55352,
2011-11-01, 01:50:04,VALID,1001.11,VALID,0,VALID,89.8987,VALID,0,VALID,24.4238,VALID,32,VALID,1.73594,
2011-11-01, 01:51:04,VALID,1001.16,VALID,0,VALID,90.2878,VALID,0,VALID,24.3441,VALID,77,VALID,1.83516,
2011-11-01, 01:52:04,VALID,1001.15,VALID,0,VALID,90.5777,VALID,0,VALID,24.3265,VALID,34,VALID,1.73945,
2011-11-01, 01:53:04,VALID,1001.17,VALID,0,VALID,90.654,VALID,0,VALID,24.3246,VALID,52,VALID,2.16211,
2011-11-01, 01:54:04,VALID,1001.2,VALID,0,VALID,90.6616,VALID,0,VALID,24.3246,VALID,119,VALID,1.09414,
2011-11-01, 01:55:04,VALID,1001.2,VALID,0,VALID,90.509,VALID,0,VALID,24.3636,VALID,60,VALID,1.11484,
2011-11-01, 01:56:04,VALID,1001.19,VALID,0,VALID,90.0437,VALID,0,VALID,24.4025,VALID,39,VALID,1.78945,
2011-11-01, 01:57:04,VALID,1001.19,VALID,0,VALID,90.0208,VALID,0,VALID,24.4822,VALID,13,VALID,0.878906,
2011-11-01, 01:58:04,VALID,1001.2,VALID,0,VALID,89.6622,VALID,0,VALID,24.4804,VALID,57,VALID,1.39883,
2011-11-01, 01:59:04,VALID,1001.2,VALID,0,VALID,89.708,VALID,0,VALID,24.5212,VALID,59,VALID,0.617578,
2011-11-01, 02:00:04,VALID,1001.17,VALID,0,VALID,89.5097,VALID,0,VALID,24.5193,VALID,14,VALID,1.31875,
2011-11-01, 02:01:04,VALID,1001.19,VALID,0,VALID,89.4715,VALID,0,VALID,24.5388,VALID,75,VALID,1.13672,
2011-11-01, 02:02:04,VALID,1001.22,VALID,0,VALID,89.647,VALID,0,VALID,24.5582,VALID,69,VALID,0.5375,
2011-11-01, 02:03:04,VALID,1001.16,VALID,0,VALID,89.7614,VALID,0,VALID,24.5582,VALID,61,VALID,0.894531,
2011-11-01, 02:04:04,VALID,1001.16,VALID,0,VALID,89.6775,VALID,0,VALID,24.5582,VALID,88,VALID,1.15977,
2011-11-01, 02:05:04,VALID,1001.13,VALID,0,VALID,89.8758,VALID,0,VALID,24.5582,VALID,41,VALID,0.555859,
2011-11-01, 02:06:04,VALID,1001.08,VALID,0,VALID,89.975,VALID,0,VALID,24.5796,VALID,84,VALID,1.01211,
2011-11-01, 02:07:04,VALID,1001.07,VALID,0,VALID,89.9445,VALID,0,VALID,24.5388,VALID,91,VALID,1.29531,
2011-11-01, 02:08:04,VALID,1001.04,VALID,0,VALID,90.2039,VALID,0,VALID,24.5388,VALID,85,VALID,1.08086,
2011-11-01, 02:09:04,VALID,1001.01,VALID,0,VALID,90.4938,VALID,0,VALID,24.4998,VALID,80,VALID,1.03672,
2011-11-01, 02:10:04,VALID,1001.04,VALID,0,VALID,90.86,VALID,0,VALID,24.4804,VALID,100,VALID,1.09414,
2011-11-01, 02:11:04,VALID,1001.04,VALID,0,VALID,91.2262,VALID,0,VALID,24.422,VALID,43,VALID,0.711719,
2011-11-01, 02:12:04,VALID,1001.05,VALID,0,VALID,91.4092,VALID,0,VALID,24.4043,VALID,79,VALID,1.01328,
2011-11-01, 02:13:04,VALID,1001,VALID,0,VALID,91.3787,VALID,0,VALID,24.3636,VALID,90,VALID,2.0707,
2011-11-01, 02:14:04,VALID,1000.97,VALID,0,VALID,91.5695,VALID,0,VALID,24.3422,VALID,98,VALID,1.05078,
2011-11-01, 02:15:04,VALID,1000.95,VALID,0,VALID,91.5313,VALID,0,VALID,24.3246,VALID,17,VALID,1.44492,
2011-11-01, 02:16:04,VALID,1000.92,VALID,0,VALID,91.5847,VALID,0,VALID,24.3654,VALID,90,VALID,0.783203,
2011-11-01, 02:17:04,VALID,1000.89,VALID,0,VALID,91.6305,VALID,0,VALID,24.3246,VALID,68,VALID,1.13828,
2011-11-01, 02:18:04,VALID,1000.9,VALID,0,VALID,91.6076,VALID,0,VALID,24.3246,VALID,69,VALID,1.03203,
2011-11-01, 02:19:04,VALID,1000.87,VALID,0,VALID,91.7297,VALID,0,VALID,24.3052,VALID,52,VALID,0.698828,
2011-11-01, 02:20:04,VALID,1000.85,VALID,0,VALID,91.7983,VALID,0,VALID,24.3265,VALID,79,VALID,0.753125,
2011-11-01, 02:21:04,VALID,1000.8,VALID,0,VALID,91.8746,VALID,0,VALID,24.3052,VALID,63,VALID,0.157422,
2011-11-01, 02:22:04,VALID,1000.78,VALID,0,VALID,91.9128,VALID,0,VALID,24.3052,VALID,39,VALID,0.504687,
2011-11-01, 02:23:04,VALID,1000.78,VALID,0,VALID,91.9585,VALID,0,VALID,24.2857,VALID,47,VALID,0.535547,
2011-11-01, 02:24:04,VALID,1000.74,VALID,0,VALID,91.9509,VALID,0,VALID,24.2857,VALID,50,VALID,1.51797,
2011-11-01, 02:25:04,VALID,1000.69,VALID,0,VALID,91.989,VALID,0,VALID,24.2857,VALID,37,VALID,1.06484,
2011-11-01, 02:26:04,VALID,1000.63,VALID,0,VALID,91.7525,VALID,0,VALID,24.2857,VALID,47,VALID,0.6625,
2011-11-01, 02:27:04,VALID,1000.58,VALID,0,VALID,91.4932,VALID,0,VALID,24.2857,VALID,27,VALID,1.89531,
2011-11-01, 02:28:04,VALID,1000.55,VALID,0,VALID,91.5466,VALID,0,VALID,24.3265,VALID,40,VALID,0.469141,
2011-11-01, 02:29:04,VALID,1000.53,VALID,0,VALID,91.4855,VALID,0,VALID,24.2857,VALID,48,VALID,0.337891,
2011-11-01, 02:30:04,VALID,1000.46,VALID,0,VALID,91.3787,VALID,0,VALID,24.2875,VALID,44,VALID,0.498437,
2011-11-01, 02:31:04,VALID,1000.47,VALID,0,VALID,91.4703,VALID,0,VALID,24.2449,VALID,74,VALID,0.646484,
2011-11-01, 02:32:04,VALID,1000.45,VALID,0,VALID,91.5923,VALID,0,VALID,24.2857,VALID,70,VALID,0.355469,
2011-11-01, 02:33:04,VALID,1000.45,VALID,0,VALID,91.6152,VALID,0,VALID,24.2857,VALID,70,VALID,0.0816406,
2011-11-01, 02:34:04,VALID,1000.47,VALID,0,VALID,91.7373,VALID,0,VALID,24.2857,VALID,71,VALID,0.239063,
2011-11-01, 02:35:04,VALID,1000.48,VALID,0,VALID,91.4321,VALID,0,VALID,24.307,VALID,85,VALID,0.557813,
2011-11-01, 02:36:04,VALID,1000.55,VALID,0,VALID,91.5313,VALID,0,VALID,24.2662,VALID,93,VALID,0.658984,
2011-11-01, 02:37:04,VALID,1000.6,VALID,0,VALID,91.5695,VALID,0,VALID,24.2468,VALID,93,VALID,0.131641,
2011-11-01, 02:38:04,VALID,1000.65,VALID,0,VALID,91.5618,VALID,0,VALID,24.2468,VALID,93,VALID,0.0703125,
2011-11-01, 02:39:04,VALID,1000.68,VALID,0,VALID,91.5161,VALID,0,VALID,24.2468,VALID,93,VALID,0,
2011-11-01, 02:40:04,VALID,1000.71,VALID,0,VALID,91.7373,VALID,0,VALID,24.2486,VALID,6,VALID,0.489844,
2011-11-01, 02:41:04,VALID,1000.77,VALID,0,VALID,91.5466,VALID,0,VALID,24.2468,VALID,354,VALID,0.719922,
2011-11-01, 02:42:04,VALID,1000.76,VALID,0,VALID,91.5695,VALID,0,VALID,24.2681,VALID,336,VALID,1.07773,
2011-11-01, 02:43:04,VALID,1000.77,VALID,0,VALID,91.5237,VALID,0,VALID,24.2468,VALID,343,VALID,0.740625,
2011-11-01, 02:44:04,VALID,1000.79,VALID,0,VALID,91.3635,VALID,0,VALID,24.2273,VALID,31,VALID,0.835938,
2011-11-01, 02:45:04,VALID,1000.79,VALID,0,VALID,91.5695,VALID,0,VALID,24.2468,VALID,285,VALID,1.20547,
2011-11-01, 02:46:04,VALID,1000.79,VALID,0,VALID,91.5542,VALID,0,VALID,24.2273,VALID,355,VALID,0.69375,
2011-11-01, 02:47:04,VALID,1000.83,VALID,0,VALID,91.661,VALID,0,VALID,24.1865,VALID,314,VALID,0.580859,
2011-11-01, 02:48:04,VALID,1000.83,VALID,0,VALID,91.6763,VALID,0,VALID,24.1865,VALID,229,VALID,0.625781,
2011-11-01, 02:49:04,VALID,1000.85,VALID,0,VALID,91.6534,VALID,0,VALID,24.2097,VALID,159,VALID,0.425,
2011-11-01, 02:50:04,VALID,1000.86,VALID,0,VALID,91.6686,VALID,0,VALID,24.2097,VALID,159,VALID,0.224609,
2011-11-01, 02:51:04,VALID,1000.85,VALID,0,VALID,91.7068,VALID,0,VALID,24.1884,VALID,159,VALID,0.212109,
2011-11-01, 02:52:04,VALID,1000.88,VALID,0,VALID,92.0119,VALID,0,VALID,24.1884,VALID,159,VALID,0.680078,
2011-11-01, 02:53:04,VALID,1000.82,VALID,0,VALID,92.073,VALID,0,VALID,24.1902,VALID,159,VALID,0.386328,
2011-11-01, 02:54:04,VALID,1000.84,VALID,0,VALID,92.1264,VALID,0,VALID,24.1707,VALID,159,VALID,0,
2011-11-01, 02:55:04,VALID,1000.84,VALID,0,VALID,92.4391,VALID,0,VALID,24.1513,VALID,159,VALID,0.115234,
2011-11-01, 02:56:04,VALID,1000.83,VALID,0,VALID,92.4391,VALID,0,VALID,24.1513,VALID,159,VALID,0.0878906,
2011-11-01, 02:57:04,VALID,1000.84,VALID,0,VALID,92.462,VALID,0,VALID,24.1726,VALID,159,VALID,0.296094,
2011-11-01, 02:58:04,VALID,1000.82,VALID,0,VALID,92.6375,VALID,0,VALID,24.1123,VALID,159,VALID,0.00664063,
2011-11-01, 02:59:04,VALID,1000.81,VALID,0,VALID,92.6833,VALID,0,VALID,24.1318,VALID,159,VALID,0.144922,
2011-11-01, 03:00:04,VALID,1000.79,VALID,0,VALID,92.7596,VALID,0,VALID,24.1318,VALID,159,VALID,0.186719,
2011-11-01, 03:01:04,VALID,1000.74,VALID,0,VALID,92.7519,VALID,0,VALID,24.1318,VALID,159,VALID,0.286719,
2011-11-01, 03:02:04,VALID,1000.7,VALID,0,VALID,92.7214,VALID,0,VALID,24.1318,VALID,215,VALID,0.437109,
2011-11-01, 03:03:04,VALID,1000.67,VALID,0,VALID,92.6528,VALID,0,VALID,24.1513,VALID,334,VALID,0.590625,
2011-11-01, 03:04:04,VALID,1000.62,VALID,0,VALID,92.8053,VALID,0,VALID,24.1707,VALID,338,VALID,0.757031,
2011-11-01, 03:05:04,VALID,1000.61,VALID,0,VALID,92.6604,VALID,0,VALID,24.13,VALID,356,VALID,0.850391,
2011-11-01, 03:06:04,VALID,1000.59,VALID,0,VALID,92.7519,VALID,0,VALID,24.1513,VALID,354,VALID,0.760547,
2011-11-01, 03:07:04,VALID,1000.56,VALID,0,VALID,92.9274,VALID,0,VALID,24.091,VALID,6,VALID,0.792578,
2011-11-01, 03:08:04,VALID,1000.58,VALID,0,VALID,92.9732,VALID,0,VALID,24.0716,VALID,17,VALID,0.933203,
2011-11-01, 03:09:04,VALID,1000.57,VALID,0,VALID,92.9732,VALID,0,VALID,24.0345,VALID,26,VALID,0.774609,
2011-11-01, 03:10:04,VALID,1000.54,VALID,0,VALID,92.9274,VALID,0,VALID,24.015,VALID,358,VALID,0.889453,
2011-11-01, 03:11:04,VALID,1000.53,VALID,0,VALID,91.5542,VALID,0,VALID,23.9761,VALID,21,VALID,0.848828,
2011-11-01, 03:12:04,VALID,1000.54,VALID,0,VALID,91.5237,VALID,0,VALID,23.9761,VALID,16,VALID,0.726563,
2011-11-01, 03:13:04,VALID,1000.54,VALID,0,VALID,91.0888,VALID,0,VALID,23.9955,VALID,25,VALID,0.76875,
2011-11-01, 03:14:04,VALID,1000.55,VALID,0,VALID,90.2268,VALID,0,VALID,23.9955,VALID,3,VALID,1.14531,
2011-11-01, 03:15:04,VALID,1000.52,VALID,0,VALID,89.9064,VALID,0,VALID,24.015,VALID,22,VALID,1.55664,
2011-11-01, 03:16:04,VALID,1000.53,VALID,0,VALID,89.6775,VALID,0,VALID,24.0539,VALID,6,VALID,0.752344,
2011-11-01, 03:17:04,VALID,1000.53,VALID,0,VALID,89.7385,VALID,0,VALID,24.0734,VALID,353,VALID,0.853906,
2011-11-01, 03:18:04,VALID,1000.53,VALID,0,VALID,89.3647,VALID,0,VALID,24.0734,VALID,21,VALID,1.82461,
2011-11-01, 03:19:04,VALID,1000.54,VALID,0,VALID,89.3876,VALID,0,VALID,24.091,VALID,8,VALID,1.13477,
2011-11-01, 03:20:04,VALID,1000.55,VALID,0,VALID,89.5707,VALID,0,VALID,24.1123,VALID,16,VALID,1.62695,
2011-11-01, 03:21:04,VALID,1000.54,VALID,0,VALID,89.647,VALID,0,VALID,24.0734,VALID,22,VALID,1.12773,
2011-11-01, 03:22:04,VALID,1000.52,VALID,0,VALID,89.8377,VALID,0,VALID,24.0539,VALID,16,VALID,1.24609,
2011-11-01, 03:23:04,VALID,1000.55,VALID,0,VALID,90.0437,VALID,0,VALID,24.0345,VALID,25,VALID,1.19844,
2011-11-01, 03:24:04,VALID,1000.5,VALID,0,VALID,89.9445,VALID,0,VALID,24.015,VALID,43,VALID,0.988281,
2011-11-01, 03:25:04,VALID,1000.54,VALID,0,VALID,90.0208,VALID,0,VALID,23.9742,VALID,13,VALID,1.90508,
2011-11-01, 03:26:04,VALID,1000.57,VALID,0,VALID,90.2039,VALID,0,VALID,23.9955,VALID,39,VALID,0.819922,
2011-11-01, 03:27:04,VALID,1000.55,VALID,0,VALID,90.6235,VALID,0,VALID,23.9955,VALID,35,VALID,0.553516,
2011-11-01, 03:28:04,VALID,1000.56,VALID,0,VALID,90.4633,VALID,0,VALID,23.9566,VALID,357,VALID,1.7125,
2011-11-01, 03:29:04,VALID,1000.57,VALID,0,VALID,90.8981,VALID,0,VALID,23.9761,VALID,37,VALID,0.837109,
2011-11-01, 03:30:04,VALID,1000.59,VALID,0,VALID,91.0965,VALID,0,VALID,23.9566,VALID,21,VALID,0.931641,
2011-11-01, 03:31:04,VALID,1000.6,VALID,0,VALID,91.2567,VALID,0,VALID,23.9371,VALID,10,VALID,1.29922,
2011-11-01, 03:32:04,VALID,1000.6,VALID,0,VALID,91.394,VALID,0,VALID,23.9177,VALID,349,VALID,0.830469,
2011-11-01, 03:33:04,VALID,1000.62,VALID,0,VALID,91.4398,VALID,0,VALID,23.8769,VALID,357,VALID,0.703516,
2011-11-01, 03:34:04,VALID,1000.63,VALID,0,VALID,91.7525,VALID,0,VALID,23.8769,VALID,353,VALID,1.01797,
2011-11-01, 03:35:04,VALID,1000.65,VALID,0,VALID,92.0501,VALID,0,VALID,23.9177,VALID,11,VALID,1.26523,
2011-11-01, 03:36:04,VALID,1000.66,VALID,0,VALID,91.8822,VALID,0,VALID,23.9371,VALID,6,VALID,1.36992,
2011-11-01, 03:37:04,VALID,1000.66,VALID,0,VALID,92.0424,VALID,0,VALID,23.9761,VALID,9,VALID,1.03711,
2011-11-01, 03:38:04,VALID,1000.69,VALID,0,VALID,92.2484,VALID,0,VALID,23.9566,VALID,356,VALID,0.993359,
2011-11-01, 03:39:04,VALID,1000.69,VALID,0,VALID,92.2484,VALID,0,VALID,23.9159,VALID,347,VALID,1.1375,
2011-11-01, 03:40:04,VALID,1000.67,VALID,0,VALID,92.5536,VALID,0,VALID,23.9177,VALID,342,VALID,0.354297,
2011-11-01, 03:41:04,VALID,1000.69,VALID,0,VALID,92.7443,VALID,0,VALID,23.8964,VALID,352,VALID,0.989453,
2011-11-01, 03:42:04,VALID,1000.69,VALID,0,VALID,93.0037,VALID,0,VALID,23.8769,VALID,295,VALID,0.367188,
2011-11-01, 03:43:04,VALID,1000.68,VALID,0,VALID,93.0571,VALID,0,VALID,23.8982,VALID,350,VALID,1.03711,
2011-11-01, 03:44:04,VALID,1000.67,VALID,0,VALID,93.2631,VALID,0,VALID,23.8575,VALID,348,VALID,0.175391,
2011-11-01, 03:45:04,VALID,1000.65,VALID,0,VALID,93.4004,VALID,0,VALID,23.8593,VALID,348,VALID,0.285156,
2011-11-01, 03:46:04,VALID,1000.65,VALID,0,VALID,93.4309,VALID,0,VALID,23.8398,VALID,355,VALID,0.723047,